AFR616 TFFR-KMIA

Flight info

Callsign AFR616
Flight time 3h 10m
Altitude 24000
Route GORET2R GORET R888 MODUX/N0463F360 Y260 ACONY Y308 MADIZ VIICE2
Aircraft A320/M-SDE3FGHIRWY/LB1

Departure

Time 2026-04-22 07:51
Airport Maryse Condé International Airport (TFFR)

Arrival

Time 2026-04-22 11:02
Airport Miami International Airport (KMIA)
Time Latitude Longitude Altitude Speed Heading
2026-04-22 07:29 16.26902 -61.52676 34 ft 0 kts
2026-04-22 07:33 16.26901 -61.52676 34 ft 0 kts
2026-04-22 07:36 16.26902 -61.52676 34 ft 0 kts
2026-04-22 07:38 16.26901 -61.52676 33 ft 0 kts
2026-04-22 07:44 16.26888 -61.52678 32 ft 4 kts 17°
2026-04-22 07:44 16.26872 -61.52685 31 ft 4 kts 37°
2026-04-22 07:45 16.26855 -61.52705 30 ft 3 kts 61°
2026-04-22 07:45 16.26851 -61.52711 30 ft 0 kts 62°
2026-04-22 07:47 16.26847 -61.52695 30 ft 6 kts 126°
2026-04-22 07:47 16.26807 -61.52637 34 ft 13 kts 102°
2026-04-22 07:48 16.26789 -61.52541 35 ft 13 kts 101°
2026-04-22 07:48 16.26773 -61.52458 36 ft 10 kts 101°
2026-04-22 07:48 16.26757 -61.52373 36 ft 18 kts 101°
2026-04-22 07:48 16.26733 -61.52243 38 ft 15 kts 101°
2026-04-22 07:49 16.26668 -61.52184 38 ft 14 kts 186°
2026-04-22 07:49 16.26577 -61.52201 38 ft 13 kts 191°
2026-04-22 07:49 16.26516 -61.52148 39 ft 14 kts 105°
2026-04-22 07:49 16.26494 -61.52033 40 ft 17 kts 101°
2026-04-22 07:50 16.26471 -61.51909 41 ft 18 kts 101°
2026-04-22 07:50 16.26427 -61.51796 43 ft 17 kts 149°
2026-04-22 07:50 16.26314 -61.51802 45 ft 16 kts 195°
2026-04-22 07:50 16.26292 -61.51898 42 ft 16 kts 280°
2026-04-22 07:51 16.26331 -61.52107 40 ft 60 kts 281°
2026-04-22 07:51 16.26455 -61.52776 31 ft 125 kts 281°
2026-04-22 07:51 16.26654 -61.53839 50 ft 170 kts 282°
2026-04-22 07:51 16.26906 -61.55031 708 ft 167 kts 282°
2026-04-22 07:52 16.27125 -61.56218 1379 ft 167 kts 283°
2026-04-22 07:52 16.27340 -61.57422 1941 ft 174 kts 283°
2026-04-22 07:52 16.27580 -61.58738 2245 ft 196 kts 283°
2026-04-22 07:52 16.27851 -61.60208 2503 ft 220 kts 283°
2026-04-22 07:53 16.28285 -61.61793 2861 ft 242 kts 294°
2026-04-22 07:53 16.29057 -61.63465 3324 ft 263 kts 300°
2026-04-22 07:53 16.29957 -61.65153 4094 ft 270 kts 301°
2026-04-22 07:53 16.30880 -61.66839 4982 ft 273 kts 300°
2026-04-22 07:54 16.31812 -61.68566 5865 ft 275 kts 299°
2026-04-22 07:54 16.32737 -61.70316 6725 ft 277 kts 298°
2026-04-22 07:54 16.33656 -61.72087 7528 ft 280 kts 298°
2026-04-22 07:54 16.34578 -61.73884 8361 ft 281 kts 298°
2026-04-22 07:55 16.35496 -61.75685 9236 ft 282 kts 298°
2026-04-22 07:55 16.36420 -61.77505 9993 ft 286 kts 298°
2026-04-22 07:55 16.37369 -61.79378 10389 ft 303 kts 298°
2026-04-22 07:55 16.38387 -61.81392 10584 ft 326 kts 298°
2026-04-22 07:56 16.39481 -61.83554 10790 ft 346 kts 298°
2026-04-22 07:56 16.40619 -61.85798 11296 ft 354 kts 298°
2026-04-22 07:56 16.41772 -61.88077 11903 ft 358 kts 298°
2026-04-22 07:56 16.42937 -61.90382 12521 ft 362 kts 298°
2026-04-22 07:57 16.44120 -61.92719 13133 ft 365 kts 298°
2026-04-22 07:57 16.45307 -61.95062 13778 ft 368 kts 298°
2026-04-22 07:57 16.46506 -61.97430 14333 ft 370 kts 298°
2026-04-22 07:57 16.47707 -61.99810 14883 ft 373 kts 298°
2026-04-22 07:58 16.48922 -62.02216 15384 ft 376 kts 297°
2026-04-22 07:58 16.50144 -62.04633 15900 ft 379 kts 297°
2026-04-22 07:58 16.51375 -62.07072 16412 ft 382 kts 297°
2026-04-22 07:58 16.52615 -62.09531 16921 ft 384 kts 297°
2026-04-22 07:59 16.53860 -62.12008 17424 ft 387 kts 297°
2026-04-22 07:59 16.55115 -62.14500 17938 ft 389 kts 297°
2026-04-22 07:59 16.56362 -62.16974 18392 ft 391 kts 296°
2026-04-22 07:59 16.57619 -62.19502 18812 ft 393 kts 296°
2026-04-22 08:00 16.58852 -62.22057 19237 ft 395 kts 295°
2026-04-22 08:00 16.60069 -62.24626 19658 ft 397 kts 295°
2026-04-22 08:00 16.61292 -62.27220 20077 ft 399 kts 295°
2026-04-22 08:00 16.62522 -62.29819 20502 ft 401 kts 295°
2026-04-22 08:01 16.63760 -62.32428 20913 ft 402 kts 295°
2026-04-22 08:01 16.65007 -62.35052 21321 ft 404 kts 295°
2026-04-22 08:01 16.66261 -62.37680 21724 ft 406 kts 295°
2026-04-22 08:01 16.67523 -62.40321 22121 ft 408 kts 295°
2026-04-22 08:02 16.68793 -62.42975 22517 ft 410 kts 295°
2026-04-22 08:02 16.70072 -62.45646 22906 ft 412 kts 295°
2026-04-22 08:02 16.71353 -62.48326 23292 ft 414 kts 295°
2026-04-22 08:02 16.72638 -62.51021 23651 ft 416 kts 295°
2026-04-22 08:03 16.73928 -62.53731 23966 ft 418 kts 295°
2026-04-22 08:03 16.75221 -62.56453 24286 ft 419 kts 295°
2026-04-22 08:03 16.76516 -62.59176 24604 ft 420 kts 295°
2026-04-22 08:03 16.77818 -62.61910 24918 ft 421 kts 295°
2026-04-22 08:04 16.79124 -62.64649 25226 ft 422 kts 295°
2026-04-22 08:04 16.80436 -62.67397 25525 ft 424 kts 295°
2026-04-22 08:04 16.81753 -62.70159 25861 ft 425 kts 295°
2026-04-22 08:04 16.83064 -62.72917 26207 ft 425 kts 295°
2026-04-22 08:05 16.84363 -62.75656 26534 ft 426 kts 294°
2026-04-22 08:05 16.85678 -62.78432 26845 ft 427 kts 294°
2026-04-22 08:05 16.86996 -62.81219 27139 ft 428 kts 294°
2026-04-22 08:05 16.88318 -62.84013 27431 ft 429 kts 295°
2026-04-22 08:06 16.89642 -62.86806 27742 ft 430 kts 295°
2026-04-22 08:06 16.90970 -62.89608 28034 ft 431 kts 295°
2026-04-22 08:06 16.92302 -62.92419 28313 ft 432 kts 295°
2026-04-22 08:06 16.93637 -62.95235 28582 ft 433 kts 295°
2026-04-22 08:07 16.94975 -62.98062 28844 ft 435 kts 294°
2026-04-22 08:07 16.96306 -63.00894 29096 ft 436 kts 294°
2026-04-22 08:07 16.97603 -63.03762 29356 ft 437 kts 293°
2026-04-22 08:07 16.98860 -63.06649 29694 ft 436 kts 292°
2026-04-22 08:08 17.00093 -63.09544 30078 ft 434 kts 292°
2026-04-22 08:08 17.01313 -63.12417 30400 ft 433 kts 292°
2026-04-22 08:08 17.02519 -63.15245 30717 ft 431 kts 292°
2026-04-22 08:08 17.03742 -63.18098 31044 ft 430 kts 292°
2026-04-22 08:09 17.04969 -63.20941 31344 ft 429 kts 292°
2026-04-22 08:09 17.06198 -63.23776 31649 ft 428 kts 292°
2026-04-22 08:09 17.07426 -63.26608 31949 ft 427 kts 292°
2026-04-22 08:09 17.08650 -63.29437 32242 ft 427 kts 292°
2026-04-22 08:10 17.09873 -63.32264 32549 ft 426 kts 292°
2026-04-22 08:10 17.11095 -63.35088 32841 ft 426 kts 292°
2026-04-22 08:10 17.12315 -63.37911 33139 ft 425 kts 291°
2026-04-22 08:10 17.13530 -63.40728 33456 ft 425 kts 291°
2026-04-22 08:11 17.14743 -63.43540 33755 ft 424 kts 291°
2026-04-22 08:11 17.15954 -63.46347 34057 ft 423 kts 291°
2026-04-22 08:11 17.17162 -63.49151 34328 ft 422 kts 291°
2026-04-22 08:11 17.18368 -63.51949 34623 ft 421 kts 291°
2026-04-22 08:12 17.19572 -63.54737 34898 ft 420 kts 291°
2026-04-22 08:12 17.20773 -63.57518 35170 ft 419 kts 291°
2026-04-22 08:12 17.21966 -63.60293 35439 ft 418 kts 291°
2026-04-22 08:12 17.23153 -63.63064 35683 ft 417 kts 290°
2026-04-22 08:13 17.24340 -63.65832 35902 ft 417 kts 290°
2026-04-22 08:13 17.25530 -63.68599 35991 ft 417 kts 290°
2026-04-22 08:13 17.27908 -63.74130 36007 ft 416 kts 290°
2026-04-22 08:14 17.30269 -63.79641 36005 ft 414 kts 290°
2026-04-22 08:14 17.32626 -63.85141 36005 ft 414 kts 290°
2026-04-22 08:15 17.34988 -63.90637 36004 ft 414 kts 290°
2026-04-22 08:15 17.37348 -63.96133 36003 ft 414 kts 290°
2026-04-22 08:16 17.39700 -64.01629 36006 ft 414 kts 290°
2026-04-22 08:16 17.42049 -64.07140 36008 ft 414 kts 290°
2026-04-22 08:17 17.44395 -64.12653 36020 ft 414 kts 290°
2026-04-22 08:17 17.46742 -64.18161 36018 ft 414 kts 290°
2026-04-22 08:18 17.49090 -64.23668 36023 ft 414 kts 290°
2026-04-22 08:18 17.51436 -64.29175 36023 ft 414 kts 290°
2026-04-22 08:19 17.53762 -64.34647 36024 ft 414 kts 290°
2026-04-22 08:19 17.56118 -64.40196 36035 ft 414 kts 290°
2026-04-22 08:20 17.58746 -64.45534 36030 ft 419 kts 301°
2026-04-22 08:20 17.62125 -64.50531 36030 ft 419 kts 300°
2026-04-22 08:21 17.65484 -64.55529 36028 ft 419 kts 300°
2026-04-22 08:21 17.68845 -64.60539 36028 ft 420 kts 300°
2026-04-22 08:22 17.72208 -64.65545 36052 ft 420 kts 300°
2026-04-22 08:22 17.75563 -64.70550 36047 ft 419 kts 300°
2026-04-22 08:23 17.78920 -64.75558 36044 ft 419 kts 300°
2026-04-22 08:23 17.82266 -64.80559 36042 ft 419 kts 300°
2026-04-22 08:24 17.85613 -64.85566 36043 ft 419 kts 300°
2026-04-22 08:24 17.88960 -64.90569 36040 ft 419 kts 300°
2026-04-22 08:25 17.92303 -64.95573 36037 ft 419 kts 300°
2026-04-22 08:25 17.95646 -65.00581 36026 ft 418 kts 300°
2026-04-22 08:26 17.98963 -65.05555 36019 ft 418 kts 300°
2026-04-22 08:26 18.02298 -65.10563 36015 ft 418 kts 300°
2026-04-22 08:27 18.05633 -65.15567 36022 ft 418 kts 300°
2026-04-22 08:27 18.08969 -65.20571 36020 ft 418 kts 300°
2026-04-22 08:28 18.12302 -65.25582 36047 ft 418 kts 300°
2026-04-22 08:28 18.15626 -65.30590 36051 ft 418 kts 300°
2026-04-22 08:29 18.18410 -65.34787 36051 ft 417 kts 300°
2026-04-22 08:29 18.21704 -65.39759 36051 ft 417 kts 300°
2026-04-22 08:30 18.25022 -65.44761 36051 ft 417 kts 300°
2026-04-22 08:30 18.28336 -65.49759 36061 ft 416 kts 300°
2026-04-22 08:31 18.31655 -65.54760 36057 ft 416 kts 300°
2026-04-22 08:32 18.36618 -65.62265 36059 ft 416 kts 300°
2026-04-22 08:32 18.39920 -65.67260 36056 ft 416 kts 300°
2026-04-22 08:33 18.43230 -65.72271 36048 ft 416 kts 300°
2026-04-22 08:33 18.46526 -65.77266 36046 ft 415 kts 300°
2026-04-22 08:34 18.49799 -65.82236 36063 ft 415 kts 300°
2026-04-22 08:34 18.53086 -65.87231 36057 ft 414 kts 300°
2026-04-22 08:35 18.56373 -65.92212 36053 ft 413 kts 300°
2026-04-22 08:35 18.59646 -65.97190 36052 ft 412 kts 300°
2026-04-22 08:36 18.62908 -66.02161 36047 ft 412 kts 300°
2026-04-22 08:36 18.66173 -66.07126 36046 ft 412 kts 300°
2026-04-22 08:37 18.69439 -66.12100 36042 ft 412 kts 300°
2026-04-22 08:37 18.72688 -66.17065 36043 ft 411 kts 299°
2026-04-22 08:38 18.75936 -66.22029 36036 ft 411 kts 300°
2026-04-22 08:38 18.79186 -66.26988 36024 ft 411 kts 299°
2026-04-22 08:39 18.82429 -66.31945 36027 ft 411 kts 299°
2026-04-22 08:39 18.85671 -66.36912 36018 ft 411 kts 299°
2026-04-22 08:40 18.88909 -66.41878 36050 ft 411 kts 299°
2026-04-22 08:40 18.92153 -66.46850 36039 ft 410 kts 299°
2026-04-22 08:41 18.95388 -66.51807 36041 ft 410 kts 299°
2026-04-22 08:41 18.98608 -66.56769 36041 ft 409 kts 299°
2026-04-22 08:42 19.01802 -66.61698 36041 ft 409 kts 299°
2026-04-22 08:42 19.05012 -66.66658 36041 ft 409 kts 299°
2026-04-22 08:43 19.08223 -66.71615 36047 ft 409 kts 299°
2026-04-22 08:43 19.11433 -66.76581 36043 ft 408 kts 299°
2026-04-22 08:44 19.14632 -66.81540 36046 ft 408 kts 299°
2026-04-22 08:44 19.17837 -66.86505 36046 ft 408 kts 299°
2026-04-22 08:45 19.21039 -66.91469 36042 ft 408 kts 299°
2026-04-22 08:45 19.24239 -66.96428 36042 ft 408 kts 299°
2026-04-22 08:46 19.27435 -67.01384 36040 ft 408 kts 299°
2026-04-22 08:46 19.30607 -67.06306 36056 ft 407 kts 299°
2026-04-22 08:47 19.33791 -67.11249 36057 ft 406 kts 299°
2026-04-22 08:47 19.36969 -67.16186 36047 ft 405 kts 298°
2026-04-22 08:48 19.40130 -67.21114 36045 ft 404 kts 298°
2026-04-22 08:48 19.43286 -67.26044 36046 ft 404 kts 298°
2026-04-22 08:49 19.46443 -67.30966 36040 ft 404 kts 298°
2026-04-22 08:49 19.49592 -67.35886 36037 ft 403 kts 298°
2026-04-22 08:50 19.52747 -67.40810 36036 ft 403 kts 298°
2026-04-22 08:50 19.55901 -67.45734 36034 ft 403 kts 298°
2026-04-22 08:51 19.59049 -67.50665 36034 ft 404 kts 298°
2026-04-22 08:51 19.62179 -67.55576 36039 ft 404 kts 298°
2026-04-22 08:52 19.65333 -67.60515 36038 ft 404 kts 298°
2026-04-22 08:52 19.68478 -67.65448 36059 ft 404 kts 298°
2026-04-22 08:53 19.71622 -67.70376 36061 ft 402 kts 298°
2026-04-22 08:53 19.74752 -67.75280 36053 ft 401 kts 298°
2026-04-22 08:54 19.77870 -67.80182 36045 ft 400 kts 298°
2026-04-22 08:54 19.80979 -67.85080 36041 ft 400 kts 298°
2026-04-22 08:55 19.84087 -67.89978 36038 ft 399 kts 298°
2026-04-22 08:55 19.87197 -67.94872 36036 ft 399 kts 298°
2026-04-22 08:56 19.90295 -67.99771 36035 ft 399 kts 298°
2026-04-22 08:56 19.93392 -68.04674 36034 ft 400 kts 298°
2026-04-22 08:57 19.96479 -68.09542 36038 ft 400 kts 298°
2026-04-22 08:57 19.99581 -68.14443 36039 ft 400 kts 298°
2026-04-22 08:58 20.02687 -68.19350 36041 ft 400 kts 298°
2026-04-22 08:58 20.05779 -68.24255 36039 ft 399 kts 298°
2026-04-22 08:59 20.08872 -68.29153 36040 ft 398 kts 298°
2026-04-22 08:59 20.11967 -68.34055 36042 ft 398 kts 298°
2026-04-22 09:00 20.15043 -68.38952 36042 ft 398 kts 298°
2026-04-22 09:00 20.18127 -68.43855 36035 ft 398 kts 298°
2026-04-22 09:01 20.21208 -68.48750 36038 ft 398 kts 298°
2026-04-22 09:01 20.24264 -68.53621 36040 ft 398 kts 298°
2026-04-22 09:02 20.27259 -68.58609 36037 ft 396 kts 295°
2026-04-22 09:02 20.29977 -68.63648 36031 ft 395 kts 294°
2026-04-22 09:03 20.32671 -68.68757 36037 ft 395 kts 294°
2026-04-22 09:03 20.35406 -68.73835 36039 ft 395 kts 295°
2026-04-22 09:04 20.38182 -68.78898 36033 ft 395 kts 295°
2026-04-22 09:04 20.40953 -68.83959 36038 ft 395 kts 295°
2026-04-22 09:05 20.43704 -68.89026 36041 ft 395 kts 295°
2026-04-22 09:05 20.46450 -68.94091 36049 ft 394 kts 295°
2026-04-22 09:06 20.49188 -68.99149 36056 ft 393 kts 295°
2026-04-22 09:06 20.51926 -69.04204 36048 ft 393 kts 295°
2026-04-22 09:07 20.54640 -69.09211 36044 ft 392 kts 295°
2026-04-22 09:07 20.57389 -69.14286 36041 ft 392 kts 295°
2026-04-22 09:08 20.60095 -69.19290 36038 ft 392 kts 295°
2026-04-22 09:08 20.62823 -69.24328 36038 ft 392 kts 295°
2026-04-22 09:09 20.65541 -69.29378 36040 ft 392 kts 295°
2026-04-22 09:09 20.68252 -69.34421 36040 ft 392 kts 295°
2026-04-22 09:10 20.70974 -69.39465 36040 ft 392 kts 295°
2026-04-22 09:10 20.73692 -69.44514 36041 ft 392 kts 295°
2026-04-22 09:11 20.76406 -69.49565 36044 ft 392 kts 295°
2026-04-22 09:11 20.79127 -69.54622 36044 ft 392 kts 295°
2026-04-22 09:12 20.81840 -69.59670 36044 ft 392 kts 295°
2026-04-22 09:12 20.84549 -69.64730 36043 ft 392 kts 294°
2026-04-22 09:13 20.87248 -69.69786 36038 ft 391 kts 294°
2026-04-22 09:13 20.89955 -69.74834 36068 ft 391 kts 294°
2026-04-22 09:14 20.92636 -69.79843 36065 ft 390 kts 294°
2026-04-22 09:14 20.95322 -69.84873 36059 ft 389 kts 294°
2026-04-22 09:15 20.98002 -69.89897 36061 ft 388 kts 294°
2026-04-22 09:15 21.00240 -69.94104 36058 ft 388 kts 294°
2026-04-22 09:16 21.02897 -69.99093 36055 ft 388 kts 294°
2026-04-22 09:16 21.05565 -70.04108 36051 ft 388 kts 294°
2026-04-22 09:17 21.08236 -70.09119 36041 ft 387 kts 294°
2026-04-22 09:17 21.10900 -70.14138 36039 ft 387 kts 294°
2026-04-22 09:18 21.13563 -70.19161 36039 ft 387 kts 294°
2026-04-22 09:18 21.16227 -70.24177 36043 ft 387 kts 294°
2026-04-22 09:19 21.18897 -70.29199 36039 ft 387 kts 294°
2026-04-22 09:19 21.21550 -70.34212 36043 ft 387 kts 294°
2026-04-22 09:20 21.24186 -70.39213 36047 ft 387 kts 294°
2026-04-22 09:20 21.26841 -70.44233 36047 ft 387 kts 294°
2026-04-22 09:21 21.29498 -70.49262 36076 ft 387 kts 294°
2026-04-22 09:21 21.32147 -70.54286 36072 ft 387 kts 294°
2026-04-22 09:22 21.34793 -70.59308 36069 ft 386 kts 294°
2026-04-22 09:22 21.37434 -70.64325 36066 ft 386 kts 294°
2026-04-22 09:23 21.40075 -70.69343 36064 ft 386 kts 294°
2026-04-22 09:23 21.42710 -70.74368 36063 ft 386 kts 294°
2026-04-22 09:24 21.45345 -70.79379 36063 ft 386 kts 294°
2026-04-22 09:24 21.47988 -70.84397 36062 ft 386 kts 294°
2026-04-22 09:25 21.50619 -70.89416 36069 ft 386 kts 294°
2026-04-22 09:25 21.53224 -70.94411 36069 ft 385 kts 294°
2026-04-22 09:26 21.55845 -70.99428 36068 ft 385 kts 294°
2026-04-22 09:26 21.58463 -71.04450 36067 ft 385 kts 293°
2026-04-22 09:27 21.60961 -71.09532 36072 ft 384 kts 292°
2026-04-22 09:27 21.63407 -71.14640 36072 ft 384 kts 292°
2026-04-22 09:28 21.65869 -71.19738 36072 ft 384 kts 292°
2026-04-22 09:28 21.68342 -71.24824 36072 ft 384 kts 292°
2026-04-22 09:29 21.70822 -71.29919 36097 ft 384 kts 292°
2026-04-22 09:29 21.73292 -71.35012 36090 ft 384 kts 292°
2026-04-22 09:30 21.75745 -71.40066 36085 ft 384 kts 292°
2026-04-22 09:30 21.78214 -71.45154 36083 ft 384 kts 292°
2026-04-22 09:31 21.80682 -71.50246 36081 ft 383 kts 292°
2026-04-22 09:31 21.83141 -71.55341 36080 ft 383 kts 292°
2026-04-22 09:32 21.85596 -71.60436 36075 ft 384 kts 292°
2026-04-22 09:32 21.88060 -71.65534 36076 ft 384 kts 292°
2026-04-22 09:33 21.90520 -71.70632 36075 ft 384 kts 292°
2026-04-22 09:33 21.92973 -71.75735 36076 ft 384 kts 292°
2026-04-22 09:34 21.95431 -71.80847 36084 ft 384 kts 292°
2026-04-22 09:34 21.97882 -71.85954 36083 ft 384 kts 292°
2026-04-22 09:35 22.01562 -71.93630 36085 ft 384 kts 293°
2026-04-22 09:35 22.03999 -71.98707 36088 ft 384 kts 293°
2026-04-22 09:36 22.06445 -72.03810 36086 ft 383 kts 292°
2026-04-22 09:36 22.08896 -72.08929 36087 ft 383 kts 292°
2026-04-22 09:37 22.11336 -72.14040 36118 ft 383 kts 293°
2026-04-22 09:37 22.13774 -72.19149 36111 ft 383 kts 293°
2026-04-22 09:38 22.16213 -72.24263 36104 ft 383 kts 292°
2026-04-22 09:38 22.18642 -72.29367 36102 ft 383 kts 293°
2026-04-22 09:39 22.21078 -72.34475 36095 ft 383 kts 293°
2026-04-22 09:39 22.23512 -72.39588 36093 ft 383 kts 293°
2026-04-22 09:40 22.25941 -72.44704 36094 ft 382 kts 293°
2026-04-22 09:40 22.28367 -72.49810 36096 ft 383 kts 293°
2026-04-22 09:41 22.30795 -72.54928 36095 ft 383 kts 293°
2026-04-22 09:41 22.33222 -72.60053 36096 ft 383 kts 293°
2026-04-22 09:42 22.35643 -72.65172 36096 ft 383 kts 293°
2026-04-22 09:42 22.38068 -72.70298 36099 ft 383 kts 293°
2026-04-22 09:43 22.40492 -72.75422 36098 ft 383 kts 293°
2026-04-22 09:43 22.42917 -72.80556 36101 ft 383 kts 293°
2026-04-22 09:44 22.45314 -72.85656 36108 ft 383 kts 293°
2026-04-22 09:44 22.47729 -72.90800 36109 ft 383 kts 293°
2026-04-22 09:45 22.50148 -72.95943 36106 ft 383 kts 293°
2026-04-22 09:45 22.52562 -73.01082 36128 ft 383 kts 293°
2026-04-22 09:46 22.54967 -73.06210 36121 ft 382 kts 293°
2026-04-22 09:46 22.57365 -73.11331 36113 ft 382 kts 293°
2026-04-22 09:47 22.59765 -73.16461 36107 ft 382 kts 293°
2026-04-22 09:47 22.62157 -73.21584 36107 ft 382 kts 293°
2026-04-22 09:48 22.64555 -73.26716 36102 ft 382 kts 293°
2026-04-22 09:48 22.66948 -73.31841 36094 ft 381 kts 293°
2026-04-22 09:49 22.69333 -73.36977 36096 ft 381 kts 293°
2026-04-22 09:49 22.71717 -73.42103 36100 ft 381 kts 293°
2026-04-22 09:50 22.74108 -73.47238 36096 ft 382 kts 293°
2026-04-22 09:50 22.76483 -73.52344 36109 ft 382 kts 293°
2026-04-22 09:51 22.78866 -73.57480 36118 ft 382 kts 293°
2026-04-22 09:51 22.81254 -73.62618 36119 ft 382 kts 293°
2026-04-22 09:52 22.83642 -73.67765 36104 ft 382 kts 293°
2026-04-22 09:52 22.86022 -73.72918 36117 ft 382 kts 293°
2026-04-22 09:53 22.88397 -73.78066 36121 ft 382 kts 293°
2026-04-22 09:53 22.90778 -73.83222 36121 ft 382 kts 293°
2026-04-22 09:54 22.93162 -73.88381 36151 ft 382 kts 293°
2026-04-22 09:54 22.95541 -73.93543 36146 ft 382 kts 293°
2026-04-22 09:55 22.97911 -73.98702 36147 ft 382 kts 293°
2026-04-22 09:55 23.00284 -74.03866 36141 ft 382 kts 293°
2026-04-22 09:56 23.02652 -74.09025 36128 ft 382 kts 293°
2026-04-22 09:56 23.05023 -74.14191 36133 ft 382 kts 293°
2026-04-22 09:57 23.07392 -74.19357 36134 ft 382 kts 293°
2026-04-22 09:57 23.09756 -74.24526 36131 ft 382 kts 293°
2026-04-22 09:58 23.12116 -74.29687 36134 ft 382 kts 293°
2026-04-22 09:58 23.14082 -74.33981 36134 ft 381 kts 293°
2026-04-22 09:59 23.16435 -74.39147 36135 ft 381 kts 293°
2026-04-22 09:59 23.18788 -74.44311 36130 ft 381 kts 293°
2026-04-22 10:00 23.21144 -74.49480 36127 ft 381 kts 293°
2026-04-22 10:00 23.23500 -74.54653 36133 ft 381 kts 293°
2026-04-22 10:01 23.25847 -74.59824 36133 ft 381 kts 293°
2026-04-22 10:01 23.28189 -74.65004 36129 ft 382 kts 293°
2026-04-22 10:02 23.30543 -74.70183 36133 ft 382 kts 293°
2026-04-22 10:02 23.32885 -74.75335 36151 ft 382 kts 293°
2026-04-22 10:03 23.35229 -74.80531 36148 ft 383 kts 293°
2026-04-22 10:03 23.37578 -74.85736 36145 ft 383 kts 293°
2026-04-22 10:04 23.39772 -74.91004 36144 ft 380 kts 286°
2026-04-22 10:04 23.41434 -74.96475 36141 ft 381 kts 287°
2026-04-22 10:05 23.43109 -75.01946 36140 ft 381 kts 287°
2026-04-22 10:05 23.44786 -75.07423 36141 ft 381 kts 287°
2026-04-22 10:06 23.46453 -75.12896 36141 ft 381 kts 287°
2026-04-22 10:06 23.48114 -75.18376 36139 ft 381 kts 287°
2026-04-22 10:07 23.49773 -75.23861 36140 ft 381 kts 287°
2026-04-22 10:07 23.51432 -75.29341 36137 ft 381 kts 287°
2026-04-22 10:08 23.53089 -75.34814 36140 ft 380 kts 287°
2026-04-22 10:08 23.54750 -75.40291 36137 ft 380 kts 287°
2026-04-22 10:09 23.56405 -75.45772 36130 ft 381 kts 287°
2026-04-22 10:09 23.58046 -75.51220 36135 ft 381 kts 287°
2026-04-22 10:10 23.59704 -75.56714 36134 ft 382 kts 287°
2026-04-22 10:10 23.61350 -75.62212 36136 ft 382 kts 287°
2026-04-22 10:11 23.63002 -75.67725 36139 ft 382 kts 287°
2026-04-22 10:11 23.64655 -75.73235 36140 ft 382 kts 287°
2026-04-22 10:12 23.66307 -75.78744 36138 ft 382 kts 287°
2026-04-22 10:12 23.67954 -75.84259 36139 ft 382 kts 287°
2026-04-22 10:13 23.69601 -75.89779 36138 ft 382 kts 287°
2026-04-22 10:13 23.71248 -75.95298 36141 ft 383 kts 287°
2026-04-22 10:14 23.72892 -76.00820 36143 ft 383 kts 287°
2026-04-22 10:14 23.74535 -76.06353 36146 ft 383 kts 287°
2026-04-22 10:15 23.76170 -76.11886 36165 ft 383 kts 287°
2026-04-22 10:15 23.77801 -76.17399 36154 ft 384 kts 287°
2026-04-22 10:16 23.79439 -76.22949 36157 ft 385 kts 287°
2026-04-22 10:16 23.81082 -76.28514 36156 ft 385 kts 287°
2026-04-22 10:17 23.82726 -76.34075 36160 ft 385 kts 287°
2026-04-22 10:17 23.84366 -76.39642 36158 ft 385 kts 287°
2026-04-22 10:18 23.86008 -76.45207 36159 ft 385 kts 287°
2026-04-22 10:18 23.87639 -76.50780 36156 ft 385 kts 287°
2026-04-22 10:19 23.89272 -76.56354 36157 ft 385 kts 287°
2026-04-22 10:19 23.90905 -76.61924 36154 ft 385 kts 287°
2026-04-22 10:20 23.92534 -76.67495 36154 ft 385 kts 287°
2026-04-22 10:20 23.94148 -76.73069 36157 ft 385 kts 287°
2026-04-22 10:21 23.95777 -76.78652 36158 ft 385 kts 287°
2026-04-22 10:21 23.97404 -76.84223 36161 ft 385 kts 287°
2026-04-22 10:22 23.99025 -76.89805 36162 ft 385 kts 287°
2026-04-22 10:22 24.00648 -76.95393 36164 ft 385 kts 287°
2026-04-22 10:23 24.02250 -77.00941 36166 ft 385 kts 287°
2026-04-22 10:23 24.03860 -77.06529 36165 ft 385 kts 287°
2026-04-22 10:24 24.05477 -77.12118 36163 ft 385 kts 287°
2026-04-22 10:24 24.07090 -77.17702 36165 ft 385 kts 287°
2026-04-22 10:25 24.08697 -77.23288 36156 ft 385 kts 287°
2026-04-22 10:25 24.10305 -77.28880 36157 ft 385 kts 287°
2026-04-22 10:26 24.11910 -77.34473 36160 ft 385 kts 287°
2026-04-22 10:26 24.13513 -77.40065 36161 ft 385 kts 287°
2026-04-22 10:27 24.15112 -77.45651 36154 ft 385 kts 287°
2026-04-22 10:27 24.16717 -77.51242 36156 ft 385 kts 287°
2026-04-22 10:28 24.18310 -77.56838 36157 ft 385 kts 287°
2026-04-22 10:28 24.19902 -77.62440 36150 ft 385 kts 287°
2026-04-22 10:29 24.21489 -77.68012 36158 ft 385 kts 287°
2026-04-22 10:29 24.23082 -77.73614 36162 ft 386 kts 287°
2026-04-22 10:30 24.24677 -77.79228 36164 ft 386 kts 287°
2026-04-22 10:30 24.26259 -77.84841 36167 ft 386 kts 287°
2026-04-22 10:31 24.28664 -77.90097 36175 ft 389 kts 301°
2026-04-22 10:31 24.31707 -77.95001 36175 ft 389 kts 301°
2026-04-22 10:32 24.34732 -77.99928 36173 ft 390 kts 301°
2026-04-22 10:32 24.37753 -78.04871 36174 ft 390 kts 301°
2026-04-22 10:33 24.40781 -78.09815 36177 ft 390 kts 301°
2026-04-22 10:33 24.43818 -78.14754 36180 ft 390 kts 301°
2026-04-22 10:34 24.46848 -78.19698 36183 ft 390 kts 301°
2026-04-22 10:34 24.49855 -78.24613 36183 ft 390 kts 301°
2026-04-22 10:35 24.52899 -78.29599 36180 ft 390 kts 301°
2026-04-22 10:35 24.55896 -78.34516 36212 ft 390 kts 301°
2026-04-22 10:36 24.58919 -78.39465 36210 ft 390 kts 301°
2026-04-22 10:36 24.61934 -78.44411 36202 ft 389 kts 301°
2026-04-22 10:37 24.66438 -78.51808 36190 ft 389 kts 301°
2026-04-22 10:38 24.69462 -78.56785 36189 ft 389 kts 301°
2026-04-22 10:38 24.72447 -78.61702 36186 ft 389 kts 301°
2026-04-22 10:39 24.75454 -78.66656 36191 ft 389 kts 301°
2026-04-22 10:39 24.78457 -78.71609 36174 ft 389 kts 301°
2026-04-22 10:40 24.81464 -78.76567 36180 ft 390 kts 301°
2026-04-22 10:40 24.84471 -78.81540 36184 ft 390 kts 301°
2026-04-22 10:41 24.87478 -78.86514 36190 ft 390 kts 301°
2026-04-22 10:41 24.90478 -78.91495 36192 ft 390 kts 301°
2026-04-22 10:42 24.93476 -78.96479 36219 ft 390 kts 301°
2026-04-22 10:42 24.96473 -79.01462 36210 ft 390 kts 301°
2026-04-22 10:43 24.99447 -79.06411 36202 ft 390 kts 301°
2026-04-22 10:43 25.02444 -79.11400 36197 ft 389 kts 301°
2026-04-22 10:44 25.05440 -79.16392 35154 ft 396 kts 301°
2026-04-22 10:44 25.06973 -79.18955 34093 ft 405 kts 301°
2026-04-22 10:44 25.08541 -79.21573 32928 ft 412 kts 301°
2026-04-22 10:44 25.10132 -79.24229 31797 ft 419 kts 301°
2026-04-22 10:45 25.11203 -79.26016 31051 ft 423 kts 301°
2026-04-22 10:45 25.12840 -79.28746 29870 ft 430 kts 301°
2026-04-22 10:45 25.14497 -79.31511 28764 ft 432 kts 301°
2026-04-22 10:45 25.16153 -79.34279 27719 ft 433 kts 301°
2026-04-22 10:46 25.17806 -79.37044 26870 ft 430 kts 302°
2026-04-22 10:46 25.19424 -79.39754 26658 ft 413 kts 302°
2026-04-22 10:46 25.20971 -79.42342 26521 ft 396 kts 302°
2026-04-22 10:46 25.22463 -79.44841 26159 ft 385 kts 302°
2026-04-22 10:47 25.23927 -79.47292 25648 ft 380 kts 302°
2026-04-22 10:47 25.25370 -79.49713 25007 ft 373 kts 302°
2026-04-22 10:47 25.26786 -79.52091 24064 ft 368 kts 302°
2026-04-22 10:47 25.28185 -79.54447 22962 ft 366 kts 302°
2026-04-22 10:48 25.29581 -79.56798 21868 ft 364 kts 302°
2026-04-22 10:48 25.30966 -79.59127 20851 ft 361 kts 302°
2026-04-22 10:48 25.32340 -79.61438 19888 ft 359 kts 302°
2026-04-22 10:48 25.33708 -79.63742 18957 ft 357 kts 302°
2026-04-22 10:49 25.35067 -79.66029 17995 ft 355 kts 302°
2026-04-22 10:49 25.36410 -79.68292 17138 ft 349 kts 302°
2026-04-22 10:49 25.37733 -79.70521 16603 ft 347 kts 302°
2026-04-22 10:49 25.39063 -79.72763 15949 ft 351 kts 302°
2026-04-22 10:50 25.40425 -79.74970 15617 ft 344 kts 304°
2026-04-22 10:50 25.41807 -79.77126 15346 ft 343 kts 304°
2026-04-22 10:50 25.43181 -79.79235 15060 ft 343 kts 305°
2026-04-22 10:50 25.44575 -79.81369 14765 ft 341 kts 304°
2026-04-22 10:51 25.45961 -79.83501 14473 ft 341 kts 304°
2026-04-22 10:51 25.47337 -79.85633 14177 ft 341 kts 304°
2026-04-22 10:51 25.48715 -79.87773 13807 ft 341 kts 304°
2026-04-22 10:51 25.50092 -79.89919 13252 ft 341 kts 304°
2026-04-22 10:52 25.51464 -79.92065 12663 ft 341 kts 304°
2026-04-22 10:52 25.52823 -79.94192 12306 ft 333 kts 305°
2026-04-22 10:52 25.54146 -79.96262 11550 ft 326 kts 305°
2026-04-22 10:52 25.55415 -79.98246 11304 ft 305 kts 305°
2026-04-22 10:53 25.56612 -80.00117 10886 ft 292 kts 306°
2026-04-22 10:53 25.57771 -80.01931 10559 ft 287 kts 306°
2026-04-22 10:53 25.58929 -80.03742 10346 ft 289 kts 306°
2026-04-22 10:53 25.60085 -80.05549 10106 ft 286 kts 306°
2026-04-22 10:54 25.61224 -80.07341 9890 ft 282 kts 306°
2026-04-22 10:54 25.62360 -80.09128 9764 ft 286 kts 307°
2026-04-22 10:54 25.63512 -80.10939 9512 ft 287 kts 307°
2026-04-22 10:54 25.64659 -80.12739 9208 ft 285 kts 307°
2026-04-22 10:55 25.65709 -80.14599 8893 ft 285 kts 297°
2026-04-22 10:55 25.66552 -80.16586 8645 ft 285 kts 296°
2026-04-22 10:55 25.67383 -80.18549 8395 ft 283 kts 296°
2026-04-22 10:55 25.68216 -80.20514 8135 ft 280 kts 296°
2026-04-22 10:56 25.69046 -80.22462 7879 ft 279 kts 296°
2026-04-22 10:56 25.69874 -80.24404 7596 ft 279 kts 296°
2026-04-22 10:56 25.70685 -80.26348 7311 ft 277 kts 292°
2026-04-22 10:56 25.71137 -80.28396 7031 ft 272 kts 276°
2026-04-22 10:57 25.71114 -80.30466 6761 ft 266 kts 267°
2026-04-22 10:57 25.71009 -80.32496 6471 ft 261 kts 267°
2026-04-22 10:57 25.70914 -80.34468 6317 ft 251 kts 268°
2026-04-22 10:57 25.70842 -80.36353 6181 ft 240 kts 268°
2026-04-22 10:58 25.70775 -80.38176 5976 ft 234 kts 268°
2026-04-22 10:58 25.70691 -80.39978 5673 ft 233 kts 267°
2026-04-22 10:58 25.70849 -80.41781 5128 ft 243 kts 291°
2026-04-22 10:58 25.71777 -80.43358 4470 ft 250 kts 323°
2026-04-22 10:59 25.73301 -80.44204 4075 ft 241 kts 354°
2026-04-22 10:59 25.74887 -80.44156 3992 ft 218 kts 21°
2026-04-22 10:59 25.76157 -80.43434 3999 ft 197 kts 45°
2026-04-22 10:59 25.76977 -80.42323 4000 ft 181 kts 65°
2026-04-22 11:00 25.77532 -80.41075 3827 ft 182 kts 66°
2026-04-22 11:00 25.78094 -80.39802 3361 ft 185 kts 69°
2026-04-22 11:00 25.78320 -80.38407 2875 ft 185 kts 89°
2026-04-22 11:00 25.78314 -80.36981 2255 ft 181 kts 88°
2026-04-22 11:01 25.78409 -80.35638 1610 ft 170 kts 83°
2026-04-22 11:01 25.78508 -80.34346 956 ft 166 kts 87°
2026-04-22 11:01 25.78549 -80.33107 486 ft 155 kts 88°
2026-04-22 11:01 25.78586 -80.31962 198 ft 141 kts 85°
2026-04-22 11:02 25.78638 -80.30918 40 ft 132 kts 88°
2026-04-22 11:02 25.78671 -80.30015 14 ft 94 kts 87°
2026-04-22 11:02 25.78693 -80.29481 14 ft 39 kts 86°
2026-04-22 11:02 25.78712 -80.29298 17 ft 23 kts 77°
2026-04-22 11:03 25.78786 -80.29176 15 ft 16 kts 43°
2026-04-22 11:03 25.78823 -80.29059 15 ft 17 kts 86°
2026-04-22 11:03 25.78848 -80.28922 15 ft 19 kts 72°
2026-04-22 11:03 25.78867 -80.28771 14 ft 21 kts 88°
2026-04-22 11:04 25.78873 -80.28607 15 ft 22 kts 87°
2026-04-22 11:04 25.78880 -80.28435 16 ft 23 kts 88°
2026-04-22 11:04 25.78889 -80.28257 15 ft 24 kts 86°
2026-04-22 11:04 25.78903 -80.28072 17 ft 24 kts 79°
2026-04-22 11:05 25.78938 -80.27922 16 ft 16 kts 92°
2026-04-22 11:05 25.78983 -80.27830 16 ft 10 kts 26°
2026-04-22 11:05 25.79010 -80.27772 15 ft 6 kts 106°
2026-04-22 11:05 25.79004 -80.27751 15 ft 2 kts 105°
2026-04-22 11:06 25.79003 -80.27746 15 ft 0 kts 105°